Regional Weather Roundup
Issued by NWS Glasgow, MT

Home | Current Version | Previous Version | Text Only | Print | Product List | Glossary On
Versions: 1 2 3 4 5 6 7 8 9 10 11 12 13 14 15 16 17 18 19 20 21 22 23 24 25 26 27 28 29 30 31 32 33 34 35 36 37 38 39 40 41 42 43 44 45 46 47 48 49 50
000
ASUS45 KGGW 011415
RWRGGW
HOURLY WEATHER ROUNDUP FOR NORTHEAST MONTANA
NATIONAL WEATHER SERVICE GLASGOW MONTANA
800 AM MDT MON SEP 01 2014

NOTE: "FAIR" INDICATES FEW OR NO CLOUDS BELOW 12,000 FEET WITH NO
SIGNIFICANT WEATHER AND/OR OBSTRUCTIONS TO VISISBILITY.

NORTHEAST MONTANA


CITY           SKY/WX    TMP DP  RH WIND       PRES   REMARKS
GLASGOW        MOSUNNY   53  50  89 NW3       29.87R
PLENTYWOOD       N/A     51  47  86 W5          N/A
WOLF POINT     MOSUNNY   52  47  83 SW5       29.87S
JORDAN           N/A     53  49  86 CALM      29.89R
WINNETT          N/A     53  45  74 SW3         N/A
SIDNEY         MOSUNNY   55  52  88 CALM      29.88R
GLENDIVE       PTSUNNY   55  50  82 W6        29.89S
MALTA            N/A     55  47  74 W6          N/A
SCOBEY           N/A     47  41  80 CALM      29.85

FORT PECK REPORTS


CITY           SKY/WX    TMP DP  RH WIND       PRES   REMARKS
FORT PECK        N/A     52  47  83 NW3         N/A

SOUTHEAST MONTANA


CITY           SKY/WX    TMP DP  RH WIND       PRES   REMARKS
BILLINGS       PTSUNNY   54  47  77 SW12      29.98S
MILES CITY     MOSUNNY   58  45  62 W10       29.90R
BAKER          CLOUDY    55  47  74 W9        29.91R
LIVINGSTON     MOSUNNY   49  44  83 W7        30.03R

CENTRAL MONTANA


CITY           SKY/WX    TMP DP  RH WIND       PRES   REMARKS
HAVRE          SUNNY     51  43  74 SW13      29.91R
LEWISTOWN      SUNNY     51  39  63 CALM      29.98R
GREAT FALLS    CLOUDY    55  39  54 SW12      29.96S
CUT BANK       MOSUNNY   53  40  61 W16       29.94S
HELENA         MOSUNNY   54  39  57 W5        30.04R
BUTTE          MOSUNNY   38  36  92 CALM      30.10R
BOZEMAN        CLOUDY    50  46  86 S5        30.06R

WESTERN MONTANA


CITY           SKY/WX    TMP DP  RH WIND       PRES   REMARKS
MISSOULA       PTCLDY    43  40  89 CALM      30.09R
KALISPELL      NOT AVBL

NORTH DAKOTA


CITY           SKY/WX    TMP DP  RH WIND       PRES   REMARKS
WILLISTON      SUNNY     53  49  86 SW5       29.84R
DICKINSON      MOSUNNY   55  49  80 W13       29.83R
MINOT          MOSUNNY   57  50  77 NW13      29.77R
BISMARCK       SUNNY     58  52  80 W8        29.80R

SOUTHERN SASKATCHEWAN


CITY           SKY/WX    TMP DP  RH WIND       PRES   REMARKS
REGINA         NOT AVBL
ESTEVAN        MOSUNNY   54  50  87 W3        29.80S
SWIFT CURRENT  SUNNY     50  45  81 W9        29.85R



USA.gov is the U.S. government's official web portal to all federal, state and local government web resources and services.